Showing default

JILIN-01 GAOFEN 2A, 44777

Orbit data source: Space-Track

JILIN-01 GAOFEN 2A, 44777 is a payload satellite owned by Changguang WJ (CN) in SSO that was launched on Wed, 13 Nov 2019 UTC via a KUAIZHOU-1A launch vehicle from the Jiuquan Satellite Launch Center, China (JSC). Payload-class satellites include a variety of spacecraft equipped with specific instruments for various scientific and technological missions. These include communications satellites like Starlink; space stations such as the ISS; scientific satellites like the Hubble; Earth observation satellites from companies like Planet Labs, Umbra, and HawkEye 360; GPS; miniature CubeSats for education and research; and military/defense satellites.

Loading next visibility...
Identifier
44777, 2019-075A
Orbit
SSO
Country
Flag of CNCN / PRC
Related business
Manufacturer
Changguang WJ
Mission
Operational Commercial Imaging
Bus & Motor
JL-1, Unknown motor
Mass
230 kg wet, 230 kg dry
Launch date (UTC)
2019-11-13 (6 years ago)
Launch vehicle
KUAIZHOU-1A
Launch site
Jiuquan Satellite Launch Center, China (JSC)
Object type
Payload
Rocket body
Debris
Shape & HBR
Box + 2 Pan, 0.8 m
Radar Cross Section
2.000 m², Large (>1 m²)

Expand to show TLE details & history
Last TLE update: 13 hours ago

TLE from 13 hours ago
0 JILIN-01 GAOFEN 2A
1 44777U 19075A   25249.32370722  .00015795  00000-0  54935-3 0  9995
2 44777  97.5265 323.0425 0008140  24.7971 335.3658 15.29771560321346
Epoch: 2025-09-06T07:46Z
TLE epoch observation values (Epoch: 2025-09-06T07:46:08.303Z)
Latitude
-0.00012°
Longitude
-139.15126°
Altitude
474.523 km
Speed
7.631 km/s
True Right ascension
21h 32m 10s
True Declination
0° 00' 00"
Sunlit
Object was in full shadow at epoch
Visualization orbit readout
Latitude
Unknown
Longitude
Unknown
Altitude
Unknown
Speed
Unknown
Apparent Right ascension
Unknown
Apparent Declination
Unknown
Sunlit
N/A
Visualization observer readout
Local Sidereal Time
12:57:08
Azimuth
Unknown
Elevation
Unknown
Doppler factor
Unknown
Orbital elements
Apogee altitude
479.03 km
Perigee altitude
467.875 km
Semi-major axis
6,851.59 km
Eccentricity
0.00081
Inclination
97.5265°
RAAN
323.0425°
Arg. of periapsis
24.7971°
True anomaly
335.32688°
Mean anomaly
335.3658°
Eccentric anomaly
335.34635°
Mean motion
3.82698 °/min
Orbital period
94.07 mins
BSTAR
0.00054935
Loading maneuver chart data...
Computing Atmospheric mass density...
Loading historical data...
Loading historical data...
Loading historical data...
Loading historical data...
Loading historical data...
Loading historical data...
Loading historical data...
Other satellites on launch #75 in the year 2019 (2019-11-13 UTC)

Documentation

Showing up to 5 results
|